TJS-3

导读 | 豆包AI

TJS-3是中国于北京时间2018年12月24日08:00发射的通信技术试验卫星,官方披露其主要用于开展多波段高速卫星通信技术验证,卫星制造中通过使用镁锂合金材料减重超170千克,提升了有效载荷能力。该卫星具备轨道机动能力,因多次出现变轨接近美国卫星的情况被外媒持续关注,西方猜测其承担太空监测、信号情报收集等任务,但此类说法多为恶意炒作。

Basic Information
目录编号:
43874
目录名称:
TJS-3
国际标识:
2018-110A
轨道中心:
EARTH
卫星名称:
TJS-3
卫星全名:
--
卫星状态:
在轨 (已飞行2684 天)
发射日期:
2018-12-24 UTC
国别 :
中国 (CN)
星等 :
--
Orbit Information
数据来源 国际轨道数据 AOE轨道数据
星历时间 2026-04-30T01:44:39+0800
20小时前
查看轨道信息
2026-04-30T01:00:00+0800
21小时前
查看轨道信息
半长轴 42028.115km 42028.199km
偏心率 0.0001282 0.0001279
轨道倾角 2.422° 2.421°
近地点辐角 22.244° 22.999°
升交点赤经 81.047° 81.052°
平近点角 159.423° 147.417°
近地点 35644.589km 35644.686km
远地点 35655.367km 35655.438km
周期 1429.123分钟 1429.127分钟
每日圈数 1.007611 1.007608
Detailed Information
使用方式:
暂无
2D Orbit Map
3D Orbit Map
Orbit Altitude Analysis Chart
Orbit Inclination Analysis Chart
Orbit Comprehensive Analysis Chart
View Comprehensive Chart